Вернуться в каталог

METEOR 2-5 DEB

АктивенPO
NORAD 39608·DEBRIS·🇷🇺 Russia

Запущен Oct 31, 1979 с Plesetsk Cosmodrome

Loading…

Ближайшие Пролёты (ближайшие 24 часа)

TLE

УстаревшееSource: Space-Track

Эпоха: Aug 26, 2026, 19:54 UTC

1 39608U 79095CK  26238.82922235  .00003663  00000-0  10885-2 0  9992
2 39608  81.1973  52.0759 0016129 164.2210 195.9484 14.43010361612866

Отслеживайте METEOR 2-5 DEB в реальном времени с AllMySat

Download on the App Store